Regional Weather Roundup
Issued by NWS Green Bay, WI

Home | Current Version | Previous Version | Text Only | Print | Product List | Glossary On
Versions: 1 2 3 4 5 6 7 8 9 10 11 12 13 14 15 16 17 18 19 20 21 22 23 24 25 26 27 28 29 30 31 32 33 34 35 36 37 38 39 40 41 42 43 44 45 46 47 48 49 50
000
ASUS43 KGRB 311359
RWRGRB

NORTH-CENTRAL AND NORTHEAST WISCONSIN REGIONAL WEATHER ROUNDUP
NATIONAL WEATHER SERVICE GREEN BAY WI
900 AM CDT THU JUL 31 2014

WIZ005-009-010>012-018-019-311500-
NORTH CENTRAL WISCONSIN

CITY           SKY/WX    TMP DP  RH WIND       PRES   REMARKS
IRONWOOD       NOT AVBL
MANITOWISH WTR NOT AVBL
ARBOR VITAE    NOT AVBL
EAGLE RIVER    NOT AVBL
LAND O LAKES   NOT AVBL
RHINELANDER    SUNNY     63  57  81 W5        30.01S
PHILLIPS       PTSUNNY   60  58  96 CALM      30.01R
ANTIGO         NOT AVBL
TOMAHAWK       NOT AVBL
MERRILL        NOT AVBL
$$

WIZ013-073-311500-
NORTHEAST WISCONSIN

CITY           SKY/WX    TMP DP  RH WIND       PRES   REMARKS
IRON MOUNTAIN  SUNNY     65  57  75 NW3       29.96R
MARINETTE      SUNNY     61  57  88 CALM      29.96S
$$

WIZ017-030-035>037-045-311500-
CENTRAL WISCONSIN

CITY           SKY/WX    TMP DP  RH WIND       PRES   REMARKS
MEDFORD        NOT AVBL
WAUSAU         MOSUNNY   65  60  84 W6        29.99S
MOSINEE        SUNNY     64  63  94 NW5       30.01S
MARSHFIELD     SUNNY     66  61  84 W9        30.01S
WISC RAPIDS    SUNNY     65  61  87 W5        30.02S
STEVENS POINT  NOT AVBL
WAUPACA        SUNNY     70  61  74 W5        30.00S
SHAWANO        SUNNY     65  61  88 NW5       29.99S
CLINTONVILLE   SUNNY     64  59  82 NW5       29.99S
$$

WIZ038-039-048-051-311500-
FOX VALLEY

CITY           SKY/WX    TMP DP  RH WIND       PRES   REMARKS
NWS GREEN BAY  SUNNY     66  62  87 CALM      29.99R
APPLETON       MOSUNNY   64  61  88 W7        30.00R
OSHKOSH        SUNNY     68  61  78 NW7       30.00R
FOND DU LAC    SUNNY     68  60  75 W5        30.01R
$$

WIZ022-050-052-311500-
EAST CENTRAL WISCONSIN

CITY           SKY/WX    TMP DP  RH WIND       PRES   REMARKS
STURGEON BAY   SUNNY     64  57  77 W6        29.98S
MANITOWOC      NOT AVBL
SHEBOYGAN      SUNNY     67  61  81 W6        30.00R
$$

LMZ563-521-522-541>543-311500-
LAKESHORE

STATION/POSITION TIME  TEMP    WIND        PRES    VSBY  WAVE
                       AIR SEA DIR/SP/G                  HT/PER
                 (UTC) (F)     (DEG/KT/KT) (MB)    (MI)  (FT/S)
SHEBOYGAN LKSHOR 1300   65     270/  6/  8 1015.7R
KEWAUNEE LKSHORE 1300   64     300/  5/  5 1014.4R
NORTHPORT PIER   1300   64     330/  4/  5 1014.2S
N MID LAKE BUOY  1300   56 52  230/  4/  6 1013.8S         1
S GREEN BAY BUOY 1300   62 66  250/ 10     1015.7S
SISTER BAY LKSHO 1300   70     290/  6/  7   N/A
CHAMBERS ISLAND  1300   62     220/  2/  7 1014.6F
MENOMINEE LKSHOR 1300          250/  2/  4 1015.2S
$$



USA.gov is the U.S. government's official web portal to all federal, state and local government web resources and services.